Skip Page Navigation
NASA JPL Caltech
NASA Logo - Jet Propulsion Laboratory + View the NASA Portal
+ Near-Earth Object (NEO) Program
Search JPL
JPL Home Earth Solar System Stars & Galaxies Technology
JPL Solar System Dynamics
BODIES ORBITS EPHEMERIDES TOOLS PHYSICAL DATA DISCOVERY FAQ SITE MAP
JPL Small-Body Database Browser
Search: [ help ]  
(2006 SF6)
Classification: Aten [NEO, PHA]          SPK-ID: 3342323
Ephemeris | Orbit Diagram | Orbital Elements | Physical Parameters | Close-Approach Data ]

[ hide orbit diagram ]
Orbit Diagram
Note: Make sure you have Java enabled on your browser to see the applet. This applet is provided as a 3D orbit visualization tool. The applet was implemented using 2-body methods, and hence should not be used for determining accurate long-term trajectories (over several years or decades) or planetary encounter circumstances. For accurate long-term ephemerides, please instead use our Horizons system.
Orbit Viewer

Additional Notes: the orbits shown in the applet are color coded. The planets are white lines, and the asteroid/comet is a blue line. The bright white line indicates the portion of the orbit that is above the ecliptic plane, and the darker portion is below the ecliptic plane. Likewise for the asteroid/comet orbit, the light blue indicates the portion above the ecliptic plane, and the dark blue the portion below the ecliptic plane.

Orbit Viewer applet originally written and kindly provided by Osamu Ajiki (AstroArts), and further modified by Ron Baalke (JPL).


Orbital Elements at Epoch 2456400.5 (2013-Apr-18.0) TDB
Reference: JPL 43 (heliocentric ecliptic J2000)
 Element Value Uncertainty (1-sigma)   Units 
e .2804639224435554 5.8467e-07  
a .9492293415600788 1.1034e-07 AU
q .6830047571276256 6.1348e-07 AU
i 5.865828054587462 1.2329e-05 deg
node 228.1296160368598 4.9778e-05 deg
peri 305.6060419884125 7.1409e-05 deg
M 228.3946170935652 0.00037917 deg
tp 2456523.988441755958
(2013-Aug-19.48844176)
0.00037686 JED
period 337.7965099174621
0.92
5.8898e-05
1.613e-07
d
yr
n 1.065730371483007 1.8582e-07 deg/d
Q 1.215453925992532 1.4128e-07 AU
  Orbit Determination Parameters
   # obs. used (total)      291  
   data-arc span      773 days (2.12 yr)  
   first obs. used      2006-09-17  
   last obs. used      2008-10-29  
   planetary ephem.      DE405  
   SB-pert. ephem.      SB405-CPV-2  
   condition code      1  
   fit RMS      .50945  
   data source      ORB  
   producer      Otto Matic  
   solution date      2011-Sep-14 20:11:35  

Additional Information
 Earth MOID = .0188562 AU 
 T_jup = 6.297 
[ show covariance matrix ]

Ephemeris | Orbit Diagram | Orbital Elements | Physical Parameters | Close-Approach Data ]

Physical Parameter Table
Parameter Symbol Value Units Sigma Reference Notes
absolute magnitude H 19.896 mag .57264 43 autocmod 2.5a

[ show close-approach data ]
Ephemeris | Orbit Diagram | Orbital Elements | Physical Parameters | Close-Approach Data ]
ABOUT SSD CREDITS/AWARDS PRIVACY/COPYRIGHT GLOSSARY LINKS
FirstGov 2013-May-24 12:04 UT
(server date/time)  
NASA Home Page
Site Manager:   Donald K. Yeomans
Webmaster  Alan B. Chamberlin